Weather in Keelung

Taiwan     25°06′30″N   121°48′38″E
temp.,
°C
wind,
m/s
gust,
m/s
humid.,
%
clouds,
%
prec.,
mm/h
press.,
hPa
HPBL,
m
2 july, sat
sat223:00+24se3889100 0.1 1008498
02:00+23sse2295100 0.1 100656
05:00+23sse1194100 1.6 100717
08:00+27ene117499 3.3 1008401
11:00+29nne326999 0.9 10071115
14:00+27nnw118199 6.3 1006548
17:00+25wnw2492100 6.0 1006405
20:00+24w3794100 7.9 1008455
3 july, sun
sun323:00+23w2496100 0.1 1008165
02:00+23wsw2496100 0.1 1006118
05:00+23wsw2395100 0.0 100688
08:00+26w3579100 0.0 1007576
11:00+30w3461100 0.0 10061293
14:00+27wnw3674100 0.1 1005938
17:00+26w2583100 0.3 1004288
20:00+25wsw138692 0.3 1005118
4 july, mon
mon423:00+24s119045 0.0 100529
02:00+24ssw0191100 0.0 100413
05:00+23s1191100 0.0 100311
08:00+27nw1173100 0.0 1004408
11:00+32n115670 0.0 10041305
14:00+29e217397 1.9 1003398
17:00+27ne028193 2.7 1003233
20:00+26ene1189100 2.9 100421
5 july, tue
tue523:00+25wnw1192100 0.0 100512
02:00+24nw1194100 0.0 100313
05:00+24w0094100 0.0 100411
08:00+28ne117718 0.0 1005553
11:00+31ne226442 1.7 10041251
14:00+30ne326427 3.8 10031062
17:00+28ne227225 2.2 1003770
20:00+25ene01901 2.6 100517
6 july, wed
wed623:00+25nw11925 0.0 100513
02:00+24wsw119210 0.0 100317
05:00+24sw1193100 0.0 100325
08:00+28wsw1176100 0.0 1004505
11:00+29se1169100 0.9 1004898
14:00+28sse1178100 3.7 1003532
17:00+27ese1186100 1.6 1002378
20:00+25se2295100 2.0 1004119